Wind_Speed
9 9 9 9 9 9 9 9 9 9 9 9 9 8 8 8 8 9 9 8 8 7 7 7 7 7 7 7 7 7 7 7 7 7 8 7 7 7 6 6 7 7 7 7
11 10 10 10 10 10 10 10 10 10 10 10 10 10 9 9 9 10 10 9 9 8 8 8 8 8 8 8 7 7 7 7 7 7 7 7 7 7 7 7 7 7 7 7
11 11 11 11 11 11 11 11 11 11 11 11 11 11 11 11 11 11 11 11 10 10 9 9 9 9 8 8 8 8 7 7 7 7 7 7 7 7 7 7 7 6 6 6
11 12 12 12 12 12 11 11 12 12 12 12 12 12 12 11 12 12 12 12 11 11 10 10 10 10 10 9 9 9 8 8 8 8 8 8 8 8 7 7 6 6 5 5
11 12 12 12 12 12 12 13 13 13 14 14 13 14 13 13 13 13 12 12 12 12 11 11 11 11 10 10 9 9 9 9 8 8 9 9 8 8 8 7 6 6 5 6
12 12 12 12 12 13 13 13 13 14 14 14 14 15 14 14 14 14 14 13 13 13 12 12 13 12 12 12 11 10 10 10 10 10 10 9 9 9 9 8 8 7 7 7
12 13 13 13 13 13 14 14 14 15 15 15 14 15 14 14 15 15 15 14 14 15 14 14 14 14 14 13 13 11 11 11 11 11 11 11 11 10 10 9 9 8 8 8
13 14 14 14 14 14 14 14 15 16 16 15 16 16 15 15 16 16 16 16 16 16 17 16 15 15 14 14 14 13 12 12 12 12 12 12 12 11 11 10 10 10 10 10
14 14 15 15 15 15 16 16 16 17 17 17 16 16 16 16 16 17 17 17 18 17 17 17 16 15 15 15 15 15 14 14 14 14 14 14 13 13 12 12 11 12 12 12
15 15 16 16 17 17 17 17 17 19 19 19 18 17 17 16 17 18 19 19 18 18 18 18 18 18 17 16 16 16 16 15 15 14 15 15 15 15 14 14 13 13 13 13
16 16 16 17 17 18 18 19 19 20 21 21 19 17 17 17 18 19 19 20 20 19 19 18 18 19 18 17 17 17 17 16 16 16 16 17 17 17 16 16 15 15 15 14
17 17 17 17 18 19 19 20 20 21 21 21 21 18 18 18 18 19 20 20 20 21 20 20 20 20 20 19 18 18 18 18 17 17 18 18 19 18 18 17 17 17 17 16
18 18 18 18 19 20 20 21 21 22 22 23 22 20 19 19 20 20 21 21 21 21 21 21 21 21 21 21 20 20 20 19 19 19 20 20 20 20 19 19 19 19 19 19
19 19 20 20 20 21 21 21 22 23 24 24 24 23 21 21 21 21 22 23 22 22 22 22 22 22 22 22 22 22 21 21 21 21 21 21 21 21 20 20 20 20 20 19
21 21 21 22 22 22 22 23 23 25 25 26 25 25 23 24 23 23 23 23 23 23 23 23 23 23 23 23 24 24 24 23 23 22 22 22 22 22 21 21 21 21 21 21
22 23 23 23 23 24 24 23 24 25 26 27 26 26 25 25 25 24 24 24 24 24 24 25 24 24 24 24 24 24 25 24 24 23 23 23 22 22 22 22 22 22 22 22
23 24 25 24 24 25 24 23 25 25 26 27 27 26 26 25 24 25 25 25 25 25 26 25 25 24 24 24 24 24 24 24 24 24 23 22 22 22 22 22 22 22 22 22
24 25 26 26 26 26 24 24 25 26 26 26 26 25 25 25 25 25 25 26 26 26 26 26 25 24 24 23 23 22 23 23 24 23 22 22 21 21 22 22 22 22 23 23
25 26 26 26 27 26 23 24 25 26 25 25 25 25 25 25 25 26 26 26 26 26 26 26 26 25 24 23 23 22 23 23 23 22 22 21 21 20 21 22 22 22 22 22
25 26 27 27 28 27 24 24 25 26 25 25 25 25 25 25 25 25 25 25 25 25 25 25 25 24 24 24 24 23 23 23 23 23 22 22 22 22 22 22 22 22 22 23
26 26 27 28 28 27 26 26 26 26 25 25 25 25 25 25 25 24 24 24 24 24 24 24 24 23 24 24 24 24 24 24 23 23 23 23 23 22 22 23 23 23 23 23
26 27 28 28 28 27 27 27 26 26 25 25 25 25 25 25 24 24 23 24 24 24 24 24 24 24 24 24 23 24 24 24 24 24 24 23 23 24 24 24 24 25 24 24
27 27 28 28 28 28 27 27 27 27 26 25 25 25 25 25 25 24 23 24 24 24 24 25 25 24 24 24 23 23 24 25 25 24 24 25 25 25 26 26 26 26 26 26
28 28 29 29 28 28 28 28 27 27 26 26 26 25 25 25 24 24 25 25 25 25 25 25 25 25 25 25 24 24 25 25 25 25 25 25 26 26 27 27 27 27 27 27
28 29 30 30 29 29 28 28 28 28 27 27 27 26 25 25 25 25 25 25 24 24 25 25 24 25 25 25 25 25 25 25 26 26 27 27 27 27 27 28 28 28 28 28
28 30 31 30 29 29 28 28 28 28 28 28 27 26 26 26 25 25 25 24 24 24 24 25 25 26 26 25 25 26 26 25 26 26 27 28 28 28 28 28 29 29 29 29
Wind_Direction
276 278 284 286 285 284 284 284 280 277 275 276 277 274 277 281 283 284 283 280 279 278 279 282 285 294 296 298 302 304 305 306 306 305 304 299 301 304 297 290 287 286 282 278
274 276 280 283 283 283 283 283 283 280 278 278 278 276 276 278 280 281 281 277 276 273 274 278 281 290 298 295 297 298 302 304 303 302 301 295 297 298 292 288 287 283 283 279
275 276 277 279 281 282 282 283 282 279 278 279 279 276 276 278 279 279 276 275 273 272 273 276 279 285 292 293 294 295 295 297 298 297 297 294 291 289 289 290 288 281 279 278
274 275 275 277 280 282 283 284 282 280 278 276 279 276 276 278 278 278 274 271 271 271 271 275 278 282 287 289 288 290 292 291 292 295 295 292 289 290 286 288 284 277 273 273
275 275 275 277 280 281 282 281 281 282 280 281 280 279 279 278 277 278 276 272 270 269 270 273 275 279 281 283 285 283 286 287 287 289 291 289 288 285 283 285 282 273 270 270
276 277 277 276 276 279 282 282 282 283 283 282 282 282 279 278 278 278 276 273 270 270 271 272 272 275 277 279 282 283 282 284 284 282 283 283 283 282 280 278 273 269 271 271
274 275 275 275 275 278 282 285 285 285 284 284 284 283 281 279 280 278 273 273 274 271 273 274 272 275 274 275 278 278 279 280 280 278 279 279 281 280 277 277 273 269 270 271
274 275 276 276 277 280 282 284 285 287 287 284 284 284 283 282 282 279 274 272 273 274 275 273 272 273 273 273 275 277 277 278 277 274 274 275 277 275 271 271 272 269 269 270
274 274 275 275 276 277 279 280 285 286 285 286 286 285 283 283 283 281 278 276 273 273 275 274 271 271 272 273 274 275 275 275 275 273 271 271 272 271 270 271 271 271 272 273
273 272 274 276 276 276 277 279 282 285 287 288 289 288 286 286 284 283 281 279 276 275 273 272 272 271 269 270 272 272 273 273 272 272 271 271 270 271 269 270 270 272 272 273
275 274 274 275 275 277 278 279 282 284 284 288 289 290 289 287 283 282 281 279 277 275 273 272 271 270 268 268 271 271 269 270 270 270 271 270 270 270 268 269 268 269 270 270
277 277 275 274 275 276 278 280 282 284 285 287 290 292 290 287 285 282 279 278 277 274 273 272 270 270 267 266 268 269 268 267 267 269 270 271 270 268 267 268 268 269 269 268
276 277 277 276 277 278 278 280 282 284 284 285 287 291 288 285 284 282 279 278 276 274 272 272 272 271 269 267 266 268 268 266 266 269 270 269 268 267 267 268 267 269 269 268
275 276 277 279 280 280 279 280 281 282 284 285 287 288 286 283 283 282 280 276 275 273 271 270 271 271 270 269 267 266 267 265 266 269 268 267 267 267 266 266 266 268 268 266
275 276 278 278 279 279 278 279 279 281 283 284 287 288 289 285 283 282 279 276 275 272 271 270 270 272 272 269 267 267 267 267 265 267 269 268 266 265 266 266 266 267 267 266
276 277 278 279 279 280 280 280 279 280 282 283 285 287 288 287 284 282 279 276 274 272 270 269 271 271 271 269 268 267 267 266 267 267 268 267 265 265 265 265 265 266 268 267
277 278 279 279 280 280 281 283 282 281 283 285 286 286 285 283 282 280 278 275 274 273 271 269 270 271 271 269 268 267 265 265 266 268 269 266 266 265 265 265 264 265 265 266
277 278 279 280 281 281 286 285 284 284 284 284 283 283 282 281 281 280 279 278 276 273 271 269 268 269 269 268 266 265 263 264 265 267 268 265 265 265 265 267 267 265 264 264
276 278 279 281 282 284 286 287 286 285 285 284 283 282 281 281 281 280 280 280 277 273 271 271 270 268 268 267 265 264 265 265 266 266 267 267 266 266 267 269 268 267 266 264
278 278 280 282 283 286 288 286 287 287 285 284 282 281 281 281 281 281 279 277 275 273 271 271 270 270 269 267 266 266 267 267 267 267 267 267 265 266 267 267 267 268 269 267
278 279 279 280 282 285 287 286 287 286 286 282 280 280 281 282 282 281 278 275 272 273 271 271 270 270 269 268 267 267 267 268 268 269 269 267 266 265 266 267 267 269 269 268
279 280 281 281 282 284 285 285 284 285 284 283 282 281 282 281 283 282 280 275 273 272 270 270 269 268 268 269 269 269 269 268 269 269 269 268 267 266 266 267 269 269 268 268
278 280 281 281 283 284 284 283 283 284 284 284 284 284 283 281 282 281 280 277 274 273 271 270 269 267 268 269 270 271 270 269 268 268 268 268 267 267 267 268 269 270 270 269
278 279 279 280 281 281 282 281 281 282 283 283 284 283 283 283 282 280 280 277 275 273 272 270 269 268 268 269 270 270 270 270 269 268 268 269 268 268 268 268 269 270 270 270
278 278 279 280 281 280 281 281 280 280 280 280 281 282 281 280 280 279 279 277 276 275 273 270 269 269 268 269 270 270 271 271 270 270 270 270 270 269 269 268 269 269 270 269
277 278 280 281 280 278 279 279 280 279 280 281 281 280 279 278 278 279 279 277 275 275 274 271 270 270 269 269 269 270 271 270 270 270 269 269 270 271 270 269 269 269 270 270
Height
5850 5851 5851 5851 5850 5850 5850 5850 5850 5850 5849 5849 5849 5849 5849 5848 5848 5847 5847 5846 5846 5845 5845 5844 5843 5843 5842 5841 5840 5839 5838 5838 5837 5836 5835 5834 5833 5832 5832 5831 5830 5830 5829 5828
5849 5849 5849 5848 5848 5848 5848 5848 5848 5848 5847 5847 5847 5847 5847 5846 5846 5845 5844 5844 5843 5843 5843 5842 5842 5841 5840 5839 5838 5838 5837 5836 5835 5834 5833 5832 5832 5831 5830 5829 5829 5828 5827 5827
5846 5847 5846 5846 5846 5846 5846 5846 5846 5845 5845 5845 5845 5845 5845 5845 5844 5843 5842 5841 5841 5841 5840 5840 5839 5838 5838 5837 5836 5836 5835 5834 5833 5833 5832 5831 5830 5829 5828 5828 5827 5826 5825 5825
5843 5843 5844 5844 5844 5843 5843 5843 5843 5842 5842 5842 5843 5842 5843 5842 5841 5840 5840 5839 5838 5838 5838 5837 5837 5836 5836 5835 5834 5833 5833 5832 5831 5831 5830 5829 5828 5827 5826 5826 5825 5824 5824 5823
5841 5841 5841 5841 5841 5841 5841 5840 5840 5839 5839 5839 5839 5839 5840 5839 5838 5838 5837 5836 5836 5835 5835 5835 5834 5834 5833 5832 5831 5831 5830 5830 5829 5828 5828 5827 5826 5826 5825 5824 5823 5822 5822 5822
5838 5838 5838 5838 5838 5837 5837 5837 5837 5836 5836 5836 5836 5836 5836 5835 5835 5834 5833 5833 5832 5832 5832 5831 5831 5831 5830 5829 5829 5828 5827 5827 5826 5826 5825 5825 5824 5824 5823 5822 5821 5821 5820 5820
5836 5836 5835 5835 5835 5835 5834 5835 5834 5833 5832 5833 5832 5832 5833 5831 5831 5830 5830 5829 5829 5829 5828 5828 5828 5827 5827 5826 5825 5825 5825 5824 5823 5823 5823 5822 5821 5821 5820 5820 5819 5819 5818 5818
5832 5833 5832 5832 5832 5831 5831 5831 5831 5830 5829 5829 5828 5828 5829 5827 5826 5826 5825 5825 5825 5825 5824 5824 5824 5823 5823 5822 5822 5821 5821 5820 5820 5820 5819 5819 5818 5818 5818 5817 5817 5817 5816 5816
5829 5829 5829 5828 5828 5828 5828 5827 5827 5826 5825 5825 5824 5825 5824 5823 5822 5822 5821 5820 5820 5820 5820 5819 5819 5818 5818 5818 5818 5817 5817 5817 5816 5816 5815 5815 5815 5815 5814 5814 5814 5814 5813 5813
5826 5826 5825 5825 5825 5824 5824 5823 5823 5821 5820 5819 5820 5820 5820 5818 5818 5817 5816 5815 5815 5815 5815 5814 5814 5813 5813 5813 5813 5813 5813 5812 5812 5811 5811 5811 5811 5811 5810 5811 5810 5810 5810 5810
5821 5822 5822 5821 5820 5820 5820 5819 5817 5817 5816 5815 5814 5818 5815 5813 5812 5811 5811 5810 5809 5809 5809 5809 5809 5808 5808 5808 5808 5808 5808 5807 5807 5807 5806 5806 5806 5806 5806 5806 5806 5806 5806 5806
5817 5817 5817 5817 5816 5815 5815 5814 5813 5812 5811 5810 5809 5813 5810 5808 5806 5805 5805 5804 5804 5803 5803 5803 5803 5802 5802 5802 5802 5802 5802 5802 5802 5802 5801 5801 5801 5801 5801 5801 5801 5801 5801 5801
5812 5813 5812 5812 5813 5811 5810 5808 5807 5806 5806 5804 5803 5807 5804 5802 5801 5799 5798 5798 5797 5797 5797 5797 5797 5796 5796 5796 5796 5796 5796 5796 5796 5796 5796 5795 5795 5795 5795 5795 5796 5796 5796 5796
5808 5807 5808 5808 5806 5805 5804 5803 5802 5801 5799 5799 5798 5798 5798 5796 5794 5793 5792 5791 5790 5790 5790 5790 5790 5789 5789 5789 5789 5789 5789 5789 5789 5789 5789 5789 5789 5789 5789 5790 5790 5790 5790 5790
5802 5802 5801 5801 5800 5799 5798 5798 5796 5795 5794 5792 5792 5791 5790 5788 5787 5786 5785 5784 5783 5783 5783 5782 5782 5782 5782 5782 5782 5782 5782 5782 5782 5783 5783 5782 5782 5782 5783 5783 5783 5784 5784 5784
5796 5796 5795 5795 5794 5793 5792 5791 5790 5789 5787 5785 5784 5784 5783 5781 5780 5779 5778 5777 5776 5775 5775 5775 5775 5775 5774 5774 5774 5774 5774 5774 5775 5775 5775 5775 5775 5776 5776 5776 5777 5777 5777 5778
5790 5789 5789 5789 5788 5786 5786 5786 5783 5782 5780 5779 5777 5777 5775 5773 5772 5771 5770 5769 5768 5768 5767 5767 5767 5767 5767 5767 5767 5767 5767 5767 5768 5768 5768 5768 5768 5769 5769 5769 5770 5770 5771 5771
5784 5783 5781 5781 5781 5780 5782 5778 5776 5775 5773 5771 5769 5768 5767 5766 5765 5764 5763 5761 5760 5760 5759 5759 5759 5760 5760 5760 5760 5760 5760 5760 5760 5760 5760 5760 5761 5761 5762 5762 5763 5763 5764 5765
5777 5776 5775 5774 5773 5772 5774 5771 5769 5767 5766 5764 5762 5761 5760 5758 5757 5756 5755 5753 5752 5752 5752 5751 5752 5752 5753 5752 5752 5753 5754 5754 5754 5753 5754 5754 5754 5755 5755 5756 5756 5756 5757 5758
5771 5770 5769 5767 5765 5765 5767 5764 5761 5760 5759 5757 5755 5753 5752 5751 5750 5749 5747 5746 5745 5744 5744 5744 5745 5745 5746 5745 5746 5746 5747 5747 5747 5747 5747 5747 5748 5748 5749 5749 5749 5749 5750 5750
5764 5763 5762 5760 5758 5758 5758 5756 5754 5753 5753 5750 5747 5746 5745 5743 5742 5741 5739 5738 5737 5737 5737 5737 5737 5738 5739 5739 5739 5739 5740 5740 5740 5740 5740 5740 5741 5741 5742 5742 5743 5743 5743 5743
5757 5756 5755 5753 5752 5753 5750 5748 5747 5745 5743 5741 5740 5739 5737 5736 5735 5733 5732 5731 5730 5730 5729 5730 5731 5731 5731 5732 5732 5732 5732 5733 5733 5733 5733 5733 5734 5734 5735 5735 5735 5735 5735 5736
5750 5749 5747 5747 5747 5745 5742 5740 5739 5737 5736 5734 5733 5731 5730 5728 5727 5726 5725 5724 5723 5723 5723 5723 5723 5724 5724 5725 5725 5725 5725 5725 5725 5726 5726 5726 5726 5727 5727 5727 5727 5727 5727 5728
5742 5740 5739 5738 5738 5736 5735 5733 5731 5730 5728 5727 5725 5724 5723 5721 5720 5719 5718 5717 5717 5716 5716 5716 5716 5716 5717 5717 5717 5718 5718 5718 5718 5718 5718 5718 5718 5719 5719 5719 5719 5719 5719 5719
5734 5732 5731 5730 5730 5728 5727 5725 5724 5722 5721 5719 5718 5717 5715 5714 5713 5712 5711 5710 5709 5709 5708 5708 5709 5709 5709 5709 5710 5710 5710 5710 5710 5710 5710 5710 5710 5710 5710 5710 5710 5710 5710 5710
5726 5724 5722 5722 5721 5720 5719 5717 5716 5714 5713 5712 5710 5709 5708 5706 5705 5704 5703 5703 5702 5701 5701 5701 5701 5701 5702 5702 5702 5702 5702 5702 5702 5702 5702 5702 5702 5702 5702 5702 5702 5701 5701 5701